| time (UTC) | temp F | wind direction | speed MPH | gust MPH | rain 1hr in | rain 24hr in | rain mn in | humidity % | barometer mb |
| 20260903222039 | 74 | 318 | 0.0 | 0.0 | 0.00 | 0.00 | 0.00 | 68 | 1020.4 |
| 20260903221542 | 74 | 318 | 0.0 | 0.0 | 0.00 | 0.00 | 0.00 | 68 | 1020.4 |
| 20260903221033 | 75 | 318 | 0.0 | 0.0 | 0.00 | 0.00 | 0.00 | 68 | 1020.4 |
| 20260903220537 | 74 | 318 | 0.0 | 0.0 | 0.00 | 0.00 | 0.00 | 68 | 1020.3 |
| 20260903220045 | 75 | 318 | 0.0 | 0.0 | 0.00 | 0.00 | 0.00 | 68 | 1020.4 |
| 20260903215034 | 75 | 318 | 0.0 | 0.0 | 0.00 | 0.00 | 0.00 | 68 | 1020.4 |
| 20260903214531 | 76 | 318 | 0.0 | 0.0 | 0.00 | 0.00 | 0.00 | 67 | 1020.3 |
| 20260903214041 | 75 | 318 | 0.0 | 0.0 | 0.00 | 0.00 | 0.00 | 67 | 1020.4 |
| 20260903213544 | 75 | 318 | 0.0 | 0.0 | 0.00 | 0.00 | 0.00 | 68 | 1020.4 |
| 20260903213032 | 75 | 318 | 0.0 | 0.0 | 0.00 | 0.00 | 0.00 | 69 | 1020.4 |
| 20260903212556 | 75 | 318 | 0.0 | 0.0 | 0.00 | 0.00 | 0.00 | 68 | 1020.3 |
| 20260903212108 | 75 | 318 | 0.0 | 0.0 | 0.00 | 0.00 | 0.00 | 69 | 1020.3 |
| 20260903211550 | 76 | 318 | 0.0 | 0.0 | 0.00 | 0.00 | 0.00 | 68 | 1020.4 |
| 20260903211037 | 76 | 318 | 0.0 | 0.0 | 0.00 | 0.00 | 0.00 | 67 | 1020.3 |
| 20260903210542 | 77 | 318 | 0.0 | 0.0 | 0.00 | 0.00 | 0.00 | 65 | 1020.3 |
| 20260903210033 | 77 | 318 | 0.0 | 0.0 | 0.00 | 0.00 | 0.00 | 64 | 1020.3 |
| 20260903205535 | 77 | 318 | 0.0 | 0.0 | 0.00 | 0.00 | 0.00 | 65 | 1020.3 |
| 20260903205053 | 77 | 318 | 0.0 | 0.0 | 0.00 | 0.00 | 0.00 | 64 | 1020.2 |
| 20260903204536 | 77 | 318 | 0.0 | 0.0 | 0.00 | 0.00 | 0.00 | 64 | 1020.2 |
| 20260903204046 | 77 | 318 | 0.0 | 0.0 | 0.00 | 0.00 | 0.00 | 64 | 1020.2 |
| 20260903203550 | 77 | 318 | 0.0 | 0.0 | 0.00 | 0.00 | 0.00 | 64 | 1020.2 |
| 20260903203059 | 77 | 321 | 0.0 | 0.0 | 0.00 | 0.00 | 0.00 | 65 | 1020.2 |
| 20260903202536 | 77 | 323 | 0.0 | 0.0 | 0.00 | 0.00 | 0.00 | 65 | 1020.1 |
| 20260903202043 | 78 | 324 | 0.0 | 0.0 | 0.00 | 0.00 | 0.00 | 64 | 1020.1 |
| 20260903201542 | 78 | 324 | 0.0 | 0.0 | 0.00 | 0.00 | 0.00 | 62 | 1020.2 |
| 20260903201034 | 78 | 324 | 0.0 | 0.0 | 0.00 | 0.00 | 0.00 | 63 | 1020.2 |
| 20260903200536 | 78 | 324 | 0.0 | 0.0 | 0.00 | 0.00 | 0.00 | 64 | 1020.1 |
| 20260903200045 | 78 | 324 | 0.0 | 0.0 | 0.00 | 0.00 | 0.00 | 64 | 1020.1 |
| 20260903195546 | 78 | 324 | 0.0 | 0.0 | 0.00 | 0.00 | 0.00 | 64 | 1020.1 |
| 20260903195042 | 78 | 339 | 0.0 | 0.0 | 0.00 | 0.00 | 0.00 | 65 | 1020.0 |
| 20260903194543 | 78 | 339 | 0.0 | 0.0 | 0.00 | 0.00 | 0.00 | 63 | 1020.0 |
| 20260903194042 | 79 | 339 | 0.0 | 0.0 | 0.00 | 0.00 | 0.00 | 62 | 1020.1 |
| 20260903193543 | 80 | 339 | 0.0 | 0.0 | 0.00 | 0.00 | 0.00 | 60 | 1020.0 |
| 20260903193038 | 80 | 339 | 0.0 | 0.0 | 0.00 | 0.00 | 0.00 | 59 | 1020.0 |
| 20260903192542 | 80 | 339 | 0.0 | 0.0 | 0.00 | 0.00 | 0.00 | 59 | 1020.0 |
| 20260903192059 | 80 | 339 | 0.0 | 0.0 | 0.00 | 0.00 | 0.00 | 59 | 1019.9 |
| 20260903191533 | 80 | 339 | 0.0 | 0.0 | 0.00 | 0.00 | 0.00 | 59 | 1019.9 |
| 20260903191041 | 80 | 339 | 0.0 | 0.0 | 0.00 | 0.00 | 0.00 | 59 | 1019.9 |
| 20260903190545 | 80 | 339 | 0.0 | 0.0 | 0.00 | 0.00 | 0.00 | 59 | 1019.8 |
| 20260903190043 | 81 | 339 | 0.0 | 6.0 | 0.00 | 0.00 | 0.00 | 60 | 1019.7 |
| 20260903185545 | 80 | 326 | 2.0 | 8.0 | 0.00 | 0.00 | 0.00 | 59 | 1019.6 |
| 20260903185035 | 80 | 327 | 4.0 | 8.0 | 0.00 | 0.00 | 0.00 | 60 | 1019.6 |
| 20260903184533 | 81 | 320 | 4.0 | 9.0 | 0.00 | 0.00 | 0.00 | 60 | 1019.5 |
| 20260903184045 | 81 | 302 | 2.0 | 6.0 | 0.00 | 0.00 | 0.00 | 59 | 1019.5 |
| 20260903183547 | 81 | 311 | 3.0 | 6.0 | 0.00 | 0.00 | 0.00 | 59 | 1019.4 |
| 20260903183036 | 81 | 324 | 2.0 | 6.0 | 0.00 | 0.00 | 0.00 | 58 | 1019.4 |
| 20260903182538 | 81 | 316 | 1.0 | 6.0 | 0.00 | 0.00 | 0.00 | 58 | 1019.4 |
| 20260903182047 | 81 | 321 | 3.0 | 8.0 | 0.00 | 0.00 | 0.00 | 59 | 1019.4 |
| 20260903181549 | 81 | 324 | 4.0 | 8.0 | 0.00 | 0.00 | 0.00 | 59 | 1019.3 |
| 20260903181043 | 82 | 304 | 3.0 | 8.0 | 0.00 | 0.00 | 0.00 | 59 | 1019.2 |
| 20260903180544 | 82 | 318 | 4.0 | 9.0 | 0.00 | 0.00 | 0.00 | 59 | 1019.2 |
| 20260903180033 | 82 | 322 | 5.0 | 9.0 | 0.00 | 0.00 | 0.00 | 58 | 1019.2 |
| 20260903175534 | 82 | 310 | 2.0 | 8.0 | 0.00 | 0.00 | 0.00 | 57 | 1019.1 |
| 20260903175041 | 83 | 308 | 3.0 | 9.0 | 0.00 | 0.00 | 0.00 | 57 | 1019.1 |
| 20260903174542 | 83 | 319 | 3.0 | 9.0 | 0.00 | 0.00 | 0.00 | 56 | 1019.1 |
| 20260903174033 | 83 | 324 | 3.0 | 6.0 | 0.00 | 0.00 | 0.00 | 56 | 1019.1 |
| 20260903173534 | 83 | 326 | 1.0 | 5.0 | 0.00 | 0.00 | 0.00 | 56 | 1019.2 |
| 20260903173042 | 82 | 315 | 0.0 | 0.0 | 0.00 | 0.00 | 0.00 | 56 | 1019.1 |
| 20260903172544 | 82 | 297 | 0.0 | 0.0 | 0.00 | 0.00 | 0.00 | 55 | 1019.1 |
| 20260903172034 | 83 | 296 | 0.0 | 0.0 | 0.00 | 0.00 | 0.00 | 52 | 1019.1 |
| 20260903171553 | 83 | 296 | 0.0 | 0.0 | 0.00 | 0.00 | 0.00 | 52 | 1019.2 |
| 20260903171112 | 84 | 296 | 0.0 | 0.0 | 0.00 | 0.00 | 0.00 | 51 | 1019.1 |
| 20260903170532 | 85 | 296 | 0.0 | 0.0 | 0.00 | 0.00 | 0.00 | 50 | 1019.2 |
| 20260903170041 | 85 | 166 | 0.0 | 0.0 | 0.00 | 0.00 | 0.00 | 50 | 1019.2 |
| 20260903165545 | 86 | 166 | 0.0 | 0.0 | 0.00 | 0.00 | 0.00 | 49 | 1019.1 |
| 20260903165044 | 86 | 166 | 0.0 | 0.0 | 0.00 | 0.00 | 0.00 | 50 | 1019.1 |
| 20260903164545 | 87 | 166 | 0.0 | 0.0 | 0.00 | 0.00 | 0.00 | 50 | 1019.1 |
| 20260903164037 | 87 | 166 | 0.0 | 0.0 | 0.00 | 0.00 | 0.00 | 50 | 1019.1 |
| 20260903163534 | 88 | 166 | 0.0 | 0.0 | 0.00 | 0.00 | 0.00 | 50 | 1019.1 |
| 20260903163043 | 88 | 166 | 0.0 | 0.0 | 0.00 | 0.00 | 0.00 | 49 | 1019.0 |
| 20260903162543 | 88 | 166 | 0.0 | 0.0 | 0.00 | 0.00 | 0.00 | 46 | 1019.0 |
| 20260903162032 | 88 | 166 | 0.0 | 0.0 | 0.00 | 0.00 | 0.00 | 46 | 1018.9 |
| 20260903161536 | 88 | 166 | 0.0 | 0.0 | 0.00 | 0.00 | 0.00 | 46 | 1018.9 |
| 20260903161042 | 88 | 166 | 0.0 | 0.0 | 0.00 | 0.00 | 0.00 | 46 | 1018.9 |
| 20260903160547 | 88 | 166 | 0.0 | 0.0 | 0.00 | 0.00 | 0.00 | 47 | 1019.0 |
| 20260903160037 | 88 | 166 | 0.0 | 3.0 | 0.00 | 0.00 | 0.00 | 48 | 1018.9 |
| 20260903155555 | 88 | 166 | 0.0 | 3.0 | 0.00 | 0.00 | 0.00 | 47 | 1018.9 |
| 20260903155042 | 89 | 174 | 0.0 | 0.0 | 0.00 | 0.00 | 0.00 | 47 | 1018.9 |
| 20260903154545 | 89 | 189 | 0.0 | 0.0 | 0.00 | 0.00 | 0.00 | 46 | 1018.9 |
| 20260903154120 | 89 | 206 | 0.0 | 0.0 | 0.00 | 0.00 | 0.00 | 46 | 1018.9 |
| 20260903153533 | 88 | 130 | 0.0 | 0.0 | 0.00 | 0.00 | 0.00 | 47 | 1019.0 |
| 20260903153041 | 88 | 130 | 0.0 | 0.0 | 0.00 | 0.00 | 0.00 | 47 | 1019.0 |
| 20260903152545 | 88 | 130 | 0.0 | 4.0 | 0.00 | 0.00 | 0.00 | 47 | 1019.1 |
| 20260903152057 | 88 | 91 | 0.0 | 5.0 | 0.00 | 0.00 | 0.00 | 47 | 1019.1 |
| 20260903151532 | 89 | 145 | 0.0 | 0.0 | 0.00 | 0.00 | 0.00 | 47 | 1019.2 |
| 20260903151040 | 89 | 166 | 0.0 | 0.0 | 0.00 | 0.00 | 0.00 | 46 | 1019.2 |
| 20260903150542 | 89 | 166 | 0.0 | 0.0 | 0.00 | 0.00 | 0.00 | 47 | 1019.3 |
| 20260903150050 | 88 | 166 | 0.0 | 5.0 | 0.00 | 0.00 | 0.00 | 46 | 1019.3 |
| 20260903145554 | 88 | 166 | 0.0 | 5.0 | 0.00 | 0.00 | 0.00 | 46 | 1019.4 |
| 20260903145045 | 89 | 137 | 0.0 | 3.0 | 0.00 | 0.00 | 0.00 | 47 | 1019.4 |
| 20260903144607 | 89 | 148 | 0.0 | 6.0 | 0.00 | 0.00 | 0.00 | 46 | 1019.4 |
| 20260903144037 | 89 | 148 | 0.0 | 6.0 | 0.00 | 0.00 | 0.00 | 45 | 1019.5 |
| 20260903143541 | 89 | 154 | 0.0 | 0.0 | 0.00 | 0.00 | 0.00 | 44 | 1019.6 |
| 20260903143042 | 89 | 235 | 0.0 | 0.0 | 0.00 | 0.00 | 0.00 | 45 | 1019.6 |
| 20260903142543 | 89 | 235 | 0.0 | 0.0 | 0.00 | 0.00 | 0.00 | 45 | 1019.7 |
| 20260903142056 | 88 | 168 | 0.0 | 5.0 | 0.00 | 0.00 | 0.00 | 45 | 1019.7 |
| 20260903141540 | 88 | 168 | 0.0 | 5.0 | 0.00 | 0.00 | 0.00 | 46 | 1019.7 |
| 20260903141038 | 88 | 153 | 2.0 | 5.0 | 0.00 | 0.00 | 0.00 | 45 | 1019.8 |
| 20260903140539 | 88 | 158 | 0.0 | 0.0 | 0.00 | 0.00 | 0.00 | 45 | 1019.7 |
| 20260903140051 | 87 | 158 | 0.0 | 0.0 | 0.00 | 0.00 | 0.00 | 47 | 1019.7 |
| 20260903135549 | 87 | 158 | 0.0 | 5.0 | 0.00 | 0.00 | 0.00 | 47 | 1019.8 |
| 20260903135038 | 87 | 158 | 2.0 | 6.0 | 0.00 | 0.00 | 0.00 | 46 | 1019.9 |
| 20260903134541 | 87 | 170 | 1.0 | 5.0 | 0.00 | 0.00 | 0.00 | 46 | 1019.9 |
| 20260903134058 | 88 | 131 | 1.0 | 3.0 | 0.00 | 0.00 | 0.00 | 45 | 1019.9 |
| 20260903133535 | 88 | 165 | 0.0 | 0.0 | 0.00 | 0.00 | 0.00 | 44 | 1020.0 |
| 20260903133044 | 88 | 173 | 0.0 | 0.0 | 0.00 | 0.00 | 0.00 | 46 | 1019.9 |
| 20260903132546 | 88 | 148 | 0.0 | 0.0 | 0.00 | 0.00 | 0.00 | 46 | 1020.0 |
| 20260903132037 | 88 | 90 | 0.0 | 0.0 | 0.00 | 0.00 | 0.00 | 46 | 1019.9 |
| 20260903131536 | 88 | 176 | 0.0 | 5.0 | 0.00 | 0.00 | 0.00 | 46 | 1020.0 |
| 20260903131044 | 88 | 175 | 2.0 | 8.0 | 0.00 | 0.00 | 0.00 | 45 | 1020.1 |
| 20260903130605 | 87 | 162 | 3.0 | 8.0 | 0.00 | 0.00 | 0.00 | 47 | 1020.1 |
| 20260903130035 | 87 | 166 | 0.0 | 7.0 | 0.00 | 0.00 | 0.00 | 46 | 1020.1 |
| 20260903125538 | 87 | 103 | 0.0 | 10.0 | 0.00 | 0.00 | 0.00 | 45 | 1020.2 |
| 20260903125057 | 87 | 89 | 0.0 | 10.0 | 0.00 | 0.00 | 0.00 | 46 | 1020.2 |
| 20260903124558 | 87 | 142 | 3.0 | 8.0 | 0.00 | 0.00 | 0.00 | 46 | 1020.2 |
| 20260903124044 | 87 | 106 | 0.0 | 4.0 | 0.00 | 0.00 | 0.00 | 45 | 1020.2 |
| 20260903123606 | 87 | 132 | 0.0 | 0.0 | 0.00 | 0.00 | 0.00 | 46 | 1020.2 |
| 20260903123103 | 87 | 4 | 0.0 | 1.0 | 0.00 | 0.00 | 0.00 | 46 | 1020.2 |
| 20260903122537 | 87 | 149 | 0.0 | 9.0 | 0.00 | 0.00 | 0.00 | 46 | 1020.3 |
| 20260903122057 | 87 | 127 | 2.0 | 9.0 | 0.00 | 0.00 | 0.00 | 45 | 1020.4 |
| 20260903121533 | 87 | 105 | 2.0 | 7.0 | 0.00 | 0.00 | 0.00 | 43 | 1020.5 |
| 20260903121046 | 87 | 156 | 0.0 | 7.0 | 0.00 | 0.00 | 0.00 | 45 | 1020.4 |
| 20260903120610 | 86 | 131 | 0.0 | 7.0 | 0.00 | 0.00 | 0.00 | 46 | 1020.4 |
| 20260903120048 | 87 | 138 | 1.0 | 7.0 | 0.00 | 0.00 | 0.00 | 44 | 1020.4 |
| 20260903115608 | 87 | 143 | 2.0 | 8.0 | 0.00 | 0.00 | 0.00 | 46 | 1020.5 |
| 20260903115039 | 86 | 108 | 2.0 | 8.0 | 0.00 | 0.00 | 0.00 | 45 | 1020.5 |
| 20260903114539 | 86 | 68 | 0.0 | 9.0 | 0.00 | 0.00 | 0.00 | 45 | 1020.6 |
| 20260903114050 | 86 | 139 | 2.0 | 9.0 | 0.00 | 0.00 | 0.00 | 47 | 1020.7 |
| 20260903113552 | 86 | 111 | 1.0 | 8.0 | 0.00 | 0.00 | 0.00 | 46 | 1020.6 |
| 20260903113042 | 86 | 137 | 3.0 | 8.0 | 0.00 | 0.00 | 0.00 | 46 | 1020.7 |
| 20260903112604 | 86 | 146 | 0.0 | 9.0 | 0.00 | 0.00 | 0.00 | 47 | 1020.8 |
| 20260903112033 | 86 | 183 | 0.0 | 9.0 | 0.00 | 0.00 | 0.00 | 48 | 1020.7 |
| 20260903111536 | 86 | 191 | 2.0 | 9.0 | 0.00 | 0.00 | 0.00 | 48 | 1020.6 |
| 20260903111044 | 86 | 145 | 3.0 | 6.0 | 0.00 | 0.00 | 0.00 | 49 | 1020.7 |
| 20260903110545 | 85 | 168 | 0.0 | 10.0 | 0.00 | 0.00 | 0.00 | 47 | 1020.7 |
| 20260903110035 | 85 | 152 | 6.0 | 10.0 | 0.00 | 0.00 | 0.00 | 46 | 1020.8 |
| 20260903105539 | 85 | 152 | 1.0 | 9.0 | 0.00 | 0.00 | 0.00 | 45 | 1020.9 |
| 20260903105119 | 85 | 144 | 4.0 | 10.0 | 0.00 | 0.00 | 0.00 | 46 | 1020.9 |
| 20260903104533 | 86 | 166 | 7.0 | 10.0 | 0.00 | 0.00 | 0.00 | 44 | 1020.9 |
| 20260903104040 | 85 | 174 | 2.0 | 6.0 | 0.00 | 0.00 | 0.00 | 46 | 1021.0 |
| 20260903103542 | 85 | 162 | 0.0 | 7.0 | 0.00 | 0.00 | 0.00 | 46 | 1021.1 |
| 20260903103032 | 85 | 130 | 4.0 | 8.0 | 0.00 | 0.00 | 0.00 | 44 | 1021.2 |
| 20260903102537 | 85 | 139 | 5.0 | 8.0 | 0.00 | 0.00 | 0.00 | 43 | 1021.3 |
| 20260903102041 | 86 | 152 | 3.0 | 7.0 | 0.00 | 0.00 | 0.00 | 43 | 1021.4 |
| 20260903101541 | 85 | 233 | 0.0 | 5.0 | 0.00 | 0.00 | 0.00 | 44 | 1021.4 |
| 20260903101100 | 85 | 237 | 0.0 | 7.0 | 0.00 | 0.00 | 0.00 | 46 | 1021.5 |
| 20260903100543 | 84 | 145 | 0.0 | 7.0 | 0.00 | 0.00 | 0.00 | 44 | 1021.5 |
| 20260903095541 | 85 | 143 | 2.0 | 7.0 | 0.00 | 0.00 | 0.00 | 42 | 1021.5 |
| 20260903095049 | 85 | 295 | 0.0 | 0.0 | 0.00 | 0.00 | 0.00 | 44 | 1021.5 |
| 20260903094548 | 84 | 160 | 0.0 | 0.0 | 0.00 | 0.00 | 0.00 | 45 | 1021.6 |
| 20260903094037 | 84 | 152 | 0.0 | 8.0 | 0.00 | 0.00 | 0.00 | 46 | 1021.6 |
| 20260903093555 | 83 | 138 | 0.0 | 8.0 | 0.00 | 0.00 | 0.00 | 43 | 1021.7 |
| 20260903093043 | 83 | 149 | 0.0 | 7.0 | 0.00 | 0.00 | 0.00 | 46 | 1021.7 |
| 20260903092544 | 83 | 160 | 3.0 | 7.0 | 0.00 | 0.00 | 0.00 | 44 | 1021.8 |
| 20260903092103 | 83 | 176 | 1.0 | 7.0 | 0.00 | 0.00 | 0.00 | 43 | 1021.8 |
| 20260903091543 | 83 | 154 | 0.0 | 7.0 | 0.00 | 0.00 | 0.00 | 45 | 1021.8 |
| 20260903091058 | 83 | 164 | 3.0 | 7.0 | 0.00 | 0.00 | 0.00 | 45 | 1021.9 |
| 20260903090539 | 82 | 129 | 0.0 | 4.0 | 0.00 | 0.00 | 0.00 | 45 | 1021.9 |
| 20260903090045 | 82 | 130 | 0.0 | 4.0 | 0.00 | 0.00 | 0.00 | 44 | 1021.8 |
| 20260903085605 | 82 | 143 | 2.0 | 6.0 | 0.00 | 0.00 | 0.00 | 45 | 1021.8 |
| 20260903085101 | 82 | 162 | 3.0 | 6.0 | 0.00 | 0.00 | 0.00 | 44 | 1021.7 |
| 20260903084541 | 82 | 156 | 0.0 | 0.0 | 0.00 | 0.00 | 0.00 | 50 | 1021.8 |
| 20260903084051 | 81 | 156 | 0.0 | 0.0 | 0.00 | 0.00 | 0.00 | 48 | 1021.9 |
| 20260903083535 | 81 | 162 | 0.0 | 0.0 | 0.00 | 0.00 | 0.00 | 50 | 1021.7 |
| 20260903083051 | 81 | 163 | 0.0 | 0.0 | 0.00 | 0.00 | 0.00 | 49 | 1021.7 |
| 20260903082551 | 81 | 160 | 0.0 | 0.0 | 0.00 | 0.00 | 0.00 | 49 | 1021.7 |
| 20260903082043 | 80 | 160 | 0.0 | 0.0 | 0.00 | 0.00 | 0.00 | 49 | 1021.8 |
| 20260903081545 | 80 | 168 | 0.0 | 6.0 | 0.00 | 0.00 | 0.00 | 49 | 1021.7 |
| 20260903081050 | 80 | 149 | 0.0 | 7.0 | 0.00 | 0.00 | 0.00 | 50 | 1021.7 |
| 20260903080531 | 80 | 142 | 2.0 | 5.0 | 0.00 | 0.00 | 0.00 | 53 | 1021.7 |
| 20260903080039 | 80 | 161 | 0.0 | 0.0 | 0.00 | 0.00 | 0.00 | 54 | 1021.6 |
| 20260903075542 | 80 | 161 | 0.0 | 0.0 | 0.00 | 0.00 | 0.00 | 55 | 1021.6 |
| 20260903075050 | 79 | 161 | 0.0 | 0.0 | 0.00 | 0.00 | 0.00 | 57 | 1021.5 |
| 20260903074610 | 79 | 162 | 0.0 | 0.0 | 0.00 | 0.00 | 0.00 | 58 | 1021.4 |
| 20260903074035 | 79 | 160 | 0.0 | 0.0 | 0.00 | 0.00 | 0.00 | 61 | 1021.3 |
| 20260903073533 | 79 | 160 | 0.0 | 0.0 | 0.00 | 0.00 | 0.00 | 61 | 1021.3 |
| 20260903073042 | 78 | 160 | 0.0 | 0.0 | 0.00 | 0.00 | 0.00 | 62 | 1021.2 |
| 20260903072541 | 78 | 160 | 0.0 | 0.0 | 0.00 | 0.00 | 0.00 | 62 | 1021.2 |
| 20260903072100 | 77 | 160 | 0.0 | 0.0 | 0.00 | 0.00 | 0.00 | 62 | 1021.2 |
| 20260903071534 | 77 | 160 | 0.0 | 0.0 | 0.00 | 0.00 | 0.00 | 64 | 1021.2 |
| 20260903071044 | 77 | 160 | 0.0 | 0.0 | 0.00 | 0.00 | 0.00 | 63 | 1021.2 |
| 20260903070545 | 77 | 222 | 0.0 | 0.0 | 0.00 | 0.00 | 0.00 | 65 | 1021.1 |
| 20260903070033 | 77 | 226 | 0.0 | 0.0 | 0.00 | 0.00 | 0.00 | 66 | 1021.1 |
| 20260903065537 | 76 | 226 | 0.0 | 5.0 | 0.00 | 0.00 | 0.00 | 67 | 1021.1 |
| 20260903065045 | 76 | 216 | 1.0 | 5.0 | 0.00 | 0.00 | 0.00 | 66 | 1021.1 |
| 20260903064540 | 77 | 247 | 3.0 | 5.0 | 0.00 | 0.00 | 0.00 | 64 | 1021.0 |
| 20260903064048 | 76 | 300 | 0.0 | 0.0 | 0.00 | 0.00 | 0.00 | 62 | 1021.0 |
| 20260903063607 | 76 | 301 | 0.0 | 0.0 | 0.00 | 0.00 | 0.00 | 68 | 1021.0 |
| 20260903063035 | 75 | 300 | 0.0 | 0.0 | 0.00 | 0.00 | 0.00 | 69 | 1021.1 |
| 20260903062537 | 75 | 300 | 0.0 | 0.0 | 0.00 | 0.00 | 0.00 | 70 | 1021.1 |
| 20260903062047 | 74 | 301 | 0.0 | 0.0 | 0.00 | 0.00 | 0.00 | 70 | 1021.0 |
| 20260903061550 | 73 | 301 | 0.0 | 0.0 | 0.00 | 0.00 | 0.00 | 68 | 1020.9 |
| 20260903061033 | 73 | 301 | 0.0 | 0.0 | 0.00 | 0.00 | 0.00 | 69 | 1020.9 |
| 20260903060534 | 73 | 301 | 0.0 | 0.0 | 0.00 | 0.00 | 0.00 | 69 | 1020.8 |
| 20260903060040 | 73 | 301 | 0.0 | 0.0 | 0.00 | 0.00 | 0.00 | 70 | 1020.7 |
| 20260903055602 | 72 | 301 | 0.0 | 0.0 | 0.00 | 0.00 | 0.00 | 71 | 1020.7 |
| 20260903055050 | 72 | 301 | 0.0 | 0.0 | 0.00 | 0.00 | 0.00 | 71 | 1020.7 |
| 20260903054612 | 71 | 301 | 0.0 | 0.0 | 0.00 | 0.00 | 0.00 | 70 | 1020.6 |
| 20260903054035 | 71 | 301 | 0.0 | 0.0 | 0.00 | 0.00 | 0.00 | 70 | 1020.5 |
| 20260903053536 | 71 | 301 | 0.0 | 0.0 | 0.00 | 0.00 | 0.00 | 70 | 1020.4 |
| 20260903053038 | 70 | 301 | 0.0 | 0.0 | 0.00 | 0.00 | 0.00 | 71 | 1020.3 |
| 20260903052542 | 70 | 300 | 0.0 | 0.0 | 0.00 | 0.00 | 0.00 | 72 | 1020.3 |
| 20260903052049 | 70 | 301 | 0.0 | 0.0 | 0.00 | 0.00 | 0.00 | 72 | 1020.2 |
| 20260903051545 | 70 | 300 | 0.0 | 0.0 | 0.00 | 0.00 | 0.00 | 72 | 1020.3 |
| 20260903051035 | 70 | 301 | 0.0 | 0.0 | 0.00 | 0.00 | 0.00 | 73 | 1020.3 |
| 20260903050538 | 69 | 300 | 0.0 | 1.0 | 0.00 | 0.00 | 0.00 | 75 | 1020.3 |
| 20260903050046 | 69 | 301 | 0.0 | 1.0 | 0.00 | 0.00 | 0.00 | 73 | 1020.2 |
| 20260903045544 | 70 | 300 | 0.0 | 1.0 | 0.00 | 0.00 | 0.00 | 71 | 1020.2 |
| 20260903045035 | 70 | 301 | 0.0 | 0.0 | 0.00 | 0.00 | 0.00 | 72 | 1020.1 |
| 20260903044538 | 70 | 301 | 0.0 | 0.0 | 0.00 | 0.00 | 0.00 | 74 | 1020.1 |
| 20260903044056 | 70 | 300 | 0.0 | 0.0 | 0.00 | 0.00 | 0.00 | 74 | 1019.9 |
| 20260903043532 | 70 | 301 | 0.0 | 0.0 | 0.00 | 0.00 | 0.00 | 73 | 1020.0 |
| 20260903043042 | 70 | 301 | 0.0 | 0.0 | 0.00 | 0.00 | 0.00 | 73 | 1020.0 |
| 20260903042545 | 70 | 301 | 0.0 | 1.0 | 0.00 | 0.00 | 0.00 | 73 | 1020.0 |
| 20260903042035 | 70 | 301 | 0.0 | 2.0 | 0.00 | 0.00 | 0.00 | 73 | 1020.0 |
| 20260903041538 | 70 | 299 | 0.0 | 0.0 | 0.00 | 0.00 | 0.00 | 73 | 1019.9 |
| 20260903041045 | 70 | 299 | 0.0 | 0.0 | 0.00 | 0.00 | 0.00 | 73 | 1019.9 |
| 20260903040548 | 70 | 299 | 0.0 | 1.0 | 0.00 | 0.00 | 0.00 | 73 | 1019.9 |
| 20260903040035 | 70 | 299 | 0.0 | 4.0 | 0.00 | 0.00 | 0.00 | 73 | 1019.9 |
| 20260903035539 | 70 | 299 | 1.0 | 4.0 | 0.00 | 0.00 | 0.00 | 73 | 1020.0 |
| 20260903035036 | 70 | 299 | 1.0 | 3.0 | 0.00 | 0.00 | 0.00 | 73 | 1019.9 |
| 20260903034559 | 70 | 299 | 0.0 | 0.0 | 0.00 | 0.00 | 0.00 | 74 | 1019.9 |
| 20260903034044 | 70 | 299 | 0.0 | 0.0 | 0.00 | 0.00 | 0.00 | 74 | 1019.9 |
| 20260903033550 | 70 | 299 | 0.0 | 0.0 | 0.00 | 0.00 | 0.00 | 74 | 1020.0 |
| 20260903033041 | 70 | 299 | 0.0 | 0.0 | 0.00 | 0.00 | 0.00 | 73 | 1020.0 |
| 20260903032541 | 71 | 299 | 0.0 | 0.0 | 0.00 | 0.00 | 0.00 | 73 | 1020.1 |
| 20260903032049 | 71 | 250 | 0.0 | 6.0 | 0.00 | 0.00 | 0.00 | 73 | 1020.0 |
| 20260903031611 | 71 | 249 | 1.0 | 6.0 | 0.00 | 0.00 | 0.00 | 74 | 1019.9 |
| 20260903031039 | 71 | 302 | 0.0 | 0.0 | 0.00 | 0.00 | 0.00 | 74 | 1019.9 |
| 20260903030602 | 71 | 302 | 0.0 | 2.0 | 0.00 | 0.00 | 0.00 | 74 | 1019.8 |
| 20260903030057 | 70 | 302 | 0.0 | 2.0 | 0.00 | 0.00 | 0.00 | 74 | 1019.9 |
| 20260903025532 | 70 | 310 | 0.0 | 0.0 | 0.00 | 0.00 | 0.00 | 74 | 1019.8 |
| 20260903025041 | 70 | 310 | 0.0 | 3.0 | 0.00 | 0.00 | 0.00 | 74 | 1019.8 |
| 20260903024542 | 70 | 310 | 0.0 | 3.0 | 0.00 | 0.00 | 0.00 | 74 | 1019.8 |
| 20260903024039 | 71 | 310 | 0.0 | 3.0 | 0.00 | 0.00 | 0.00 | 74 | 1019.9 |
| 20260903023544 | 71 | 310 | 0.0 | 0.0 | 0.00 | 0.00 | 0.00 | 74 | 1019.9 |
| 20260903023119 | 71 | 310 | 0.0 | 0.0 | 0.00 | 0.00 | 0.00 | 74 | 1019.9 |
| 20260903022535 | 71 | 310 | 0.0 | 0.0 | 0.00 | 0.00 | 0.00 | 75 | 1019.9 |
| 20260903022045 | 71 | 310 | 0.0 | 0.0 | 0.00 | 0.00 | 0.00 | 75 | 1019.8 |
| 20260903021546 | 71 | 310 | 0.0 | 0.0 | 0.00 | 0.00 | 0.00 | 75 | 1019.8 |
| 20260903021033 | 71 | 310 | 0.0 | 0.0 | 0.00 | 0.00 | 0.00 | 73 | 1019.8 |
| 20260903020537 | 71 | 310 | 0.0 | 0.0 | 0.00 | 0.00 | 0.00 | 73 | 1019.8 |
| 20260903020053 | 72 | 310 | 0.0 | 0.0 | 0.00 | 0.00 | 0.00 | 73 | 1019.8 |
| 20260903015549 | 72 | 310 | 0.0 | 0.0 | 0.00 | 0.00 | 0.00 | 73 | 1019.9 |
| 20260903015040 | 72 | 310 | 0.0 | 0.0 | 0.00 | 0.00 | 0.00 | 73 | 1019.9 |
| 20260903014604 | 72 | 310 | 0.0 | 0.0 | 0.00 | 0.00 | 0.00 | 74 | 1019.8 |
| 20260903014032 | 72 | 310 | 0.0 | 0.0 | 0.00 | 0.00 | 0.00 | 74 | 1019.9 |
| 20260903013532 | 72 | 310 | 0.0 | 0.0 | 0.00 | 0.00 | 0.00 | 74 | 1019.8 |
| 20260903013048 | 72 | 310 | 0.0 | 0.0 | 0.00 | 0.00 | 0.00 | 74 | 1019.8 |
| 20260903012550 | 72 | 310 | 0.0 | 0.0 | 0.00 | 0.00 | 0.00 | 75 | 1019.8 |
| 20260903012036 | 72 | 310 | 0.0 | 3.0 | 0.00 | 0.00 | 0.00 | 75 | 1019.7 |
| 20260903011541 | 72 | 310 | 1.0 | 4.0 | 0.00 | 0.00 | 0.00 | 75 | 1019.7 |
| 20260903011038 | 71 | 310 | 3.0 | 4.0 | 0.00 | 0.00 | 0.00 | 76 | 1019.8 |
| 20260903010538 | 72 | 310 | 1.0 | 4.0 | 0.00 | 0.00 | 0.00 | 74 | 1019.9 |
| 20260903010058 | 72 | 310 | 0.0 | 2.0 | 0.00 | 0.00 | 0.00 | 74 | 1019.9 |
| 20260903005537 | 72 | 310 | 0.0 | 0.0 | 0.00 | 0.00 | 0.00 | 73 | 1019.9 |
| 20260903005041 | 72 | 310 | 0.0 | 0.0 | 0.00 | 0.00 | 0.00 | 74 | 1019.8 |
| 20260903004544 | 72 | 310 | 0.0 | 0.0 | 0.00 | 0.00 | 0.00 | 74 | 1019.8 |
| 20260903004053 | 73 | 310 | 0.0 | 0.0 | 0.00 | 0.00 | 0.00 | 73 | 1019.8 |
| 20260903003535 | 73 | 310 | 0.0 | 0.0 | 0.00 | 0.00 | 0.00 | 72 | 1019.8 |
| 20260903003047 | 73 | 310 | 0.0 | 2.0 | 0.00 | 0.00 | 0.00 | 71 | 1019.7 |
| 20260903002609 | 73 | 310 | 0.0 | 4.0 | 0.00 | 0.00 | 0.00 | 72 | 1019.7 |
| 20260903002054 | 73 | 310 | 1.0 | 4.0 | 0.00 | 0.00 | 0.00 | 72 | 1019.7 |
| 20260903001535 | 73 | 310 | 1.0 | 4.0 | 0.00 | 0.00 | 0.00 | 72 | 1019.7 |
| 20260903001051 | 73 | 310 | 2.0 | 4.0 | 0.00 | 0.00 | 0.00 | 73 | 1019.7 |
| 20260903000551 | 73 | 312 | 1.0 | 4.0 | 0.00 | 0.00 | 0.00 | 73 | 1019.8 |
| 20260903000044 | 73 | 328 | 0.0 | 2.0 | 0.00 | 0.00 | 0.00 | 72 | 1019.7 |
| 20260902235548 | 74 | 328 | 0.0 | 0.0 | 0.00 | 0.00 | 0.00 | 72 | 1019.7 |
| 20260902235036 | 74 | 328 | 0.0 | 0.0 | 0.00 | 0.00 | 0.00 | 71 | 1019.7 |
| 20260902234539 | 74 | 328 | 0.0 | 0.0 | 0.00 | 0.00 | 0.00 | 71 | 1019.8 |
| 20260902234041 | 74 | 328 | 0.0 | 0.0 | 0.00 | 0.00 | 0.00 | 71 | 1019.7 |
| 20260902233543 | 74 | 328 | 0.0 | 0.0 | 0.00 | 0.00 | 0.00 | 71 | 1019.8 |
| 20260902233033 | 74 | 328 | 0.0 | 4.0 | 0.00 | 0.00 | 0.00 | 72 | 1019.7 |
| 20260902232535 | 74 | 328 | 0.0 | 4.0 | 0.00 | 0.00 | 0.00 | 71 | 1019.7 |
| 20260902232042 | 74 | 339 | 0.0 | 0.0 | 0.00 | 0.00 | 0.00 | 71 | 1019.7 |
| 20260902231546 | 74 | 343 | 0.0 | 0.0 | 0.00 | 0.00 | 0.00 | 72 | 1019.7 |
| 20260902231034 | 74 | 343 | 0.0 | 0.0 | 0.00 | 0.00 | 0.00 | 72 | 1019.6 |
| 20260902230536 | 74 | 343 | 0.0 | 0.0 | 0.00 | 0.00 | 0.00 | 72 | 1019.6 |
| 20260902230043 | 74 | 343 | 0.0 | 0.0 | 0.00 | 0.00 | 0.00 | 72 | 1019.6 |
| 20260902225548 | 74 | 343 | 0.0 | 0.0 | 0.00 | 0.00 | 0.00 | 72 | 1019.5 |
| 20260902225102 | 74 | 347 | 0.0 | 0.0 | 0.00 | 0.00 | 0.00 | 73 | 1019.6 |
| 20260902224543 | 74 | 359 | 0.0 | 0.0 | 0.00 | 0.00 | 0.00 | 74 | 1019.5 |
| 20260902224034 | 74 | 132 | 0.0 | 0.0 | 0.00 | 0.00 | 0.00 | 74 | 1019.6 |
| 20260902223534 | 74 | 132 | 0.0 | 0.0 | 0.00 | 0.00 | 0.00 | 73 | 1019.5 |
| 20260902223041 | 75 | 133 | 0.0 | 0.0 | 0.00 | 0.00 | 0.00 | 72 | 1019.5 |